"Time","Temp","Dewpoint","Humidity","Pressure","Direction","Speed","Gust","Precip","PrecipRate"
"00:04:56","24","19.3","81.9","30.29","319","0","0","0.00","0.00"
"00:09:58","24","19","81.2","30.29","319","0","0","0.00","0.00"
"00:14:59","23.9","18.9","81","30.29","319","0","0","0.00","0.00"
"00:19:56","23.8","18.8","81","30.29","319","0","0","0.00","0.00"
"00:24:57","23.8","18.7","80.6","30.29","319","0","0","0.00","0.00"
"00:29:59","23.8","18.7","80.6","30.29","319","0","0","0.00","0.00"
"00:34:57","23.7","18.3","79.9","30.29","319","0","0","0.00","0.00"
"00:39:59","23.5","17.9","79","30.29","319","0","0","0.00","0.00"
"00:44:59","23.3","17.9","79.7","30.30","319","0","0","0.00","0.00"
"00:49:56","23.2","17.8","79.2","30.30","319","0","0","0.00","0.00"
"00:54:57","23.1","17.7","79.7","30.30","319","0","0","0.00","0.00"
"00:59:57","22.9","17.7","80","30.31","319","0","0","0.00","0.00"
"01:04:56","22.8","17.7","80.7","30.31","319","0","0","0.00","0.00"
"01:09:59","22.7","17.7","81.1","30.31","319","0","0","0.00","0.00"
"01:14:57","22.6","18.2","82.9","30.31","319","0","0","0.00","0.00"
"01:19:58","22.6","18.5","83.9","30.31","319","0","0","0.00","0.00"
"01:24:59","22.7","18.5","83.7","30.31","319","0","0","0.00","0.00"
"01:29:59","22.6","18.2","83","30.31","319","0","0","0.00","0.00"
"01:34:59","22.5","18.1","83","30.31","319","0","0","0.00","0.00"
"01:39:56","22.3","17.8","82.7","30.31","319","0","0","0.00","0.00"
"01:44:56","22.1","17.6","82.4","30.32","319","0","0","0.00","0.00"
"01:49:59","21.9","17.5","82.8","30.32","319","0","0","0.00","0.00"
"01:54:59","21.8","17.4","83","30.32","319","0","0","0.00","0.00"
"01:59:58","21.6","17.5","83.9","30.32","319","0","0","0.00","0.00"
"02:04:57","21.6","17.6","84.4","30.32","319","0","0","0.00","0.00"
"02:09:57","21.5","17.4","84","30.32","319","0","0","0.00","0.00"
"02:14:57","21.4","17.4","84.5","30.33","319","0","0","0.00","0.00"
"02:19:56","21.3","17.5","85.1","30.33","319","0","0","0.00","0.00"
"02:24:57","21.3","17.9","86.3","30.33","319","0","0","0.00","0.00"
"02:29:56","21.4","17.9","86","30.33","319","0","0","0.00","0.00"
"02:34:59","21.4","17.7","85.6","30.32","319","0","0","0.00","0.00"
"02:39:54","21.1","17.3","85","30.32","319","0","0","0.00","0.00"
"02:44:58","21","17.2","85","30.32","319","0","0","0.00","0.00"
"02:49:58","20.9","17.2","85.5","30.32","319","0","0","0.00","0.00"
"02:54:58","21","17.6","86.5","30.32","319","0","0","0.00","0.00"
"02:59:57","21.1","17.6","86","30.32","319","0","0","0.00","0.00"
"03:04:59","21.1","17.6","86","30.32","319","0","0","0.00","0.00"
"03:09:58","21","17.3","85.3","30.32","319","0","0","0.00","0.00"
"03:14:58","20.8","17","85","30.32","319","0","0","0.00","0.00"
"03:19:57","20.7","17.2","85.8","30.32","319","0","0","0.00","0.00"
"03:24:57","21","17.3","85.4","30.32","319","0","0","0.00","0.00"
"03:29:56","21.2","17.4","85","30.33","319","0","0","0.00","0.00"
"03:34:59","21.1","17.3","85","30.33","319","0","0","0.00","0.00"
"03:39:59","21","17.2","85.1","30.33","319","0","0","0.00","0.00"
"03:44:58","21.1","17.6","86","30.33","319","0","0","0.00","0.00"
"03:49:57","21.2","17.6","85.7","30.33","319","0","0","0.00","0.00"
"03:54:56","21.2","17.4","85","30.33","319","0","0","0.00","0.00"
"03:59:56","21","17.3","85.3","30.33","319","0","0","0.00","0.00"
"04:04:58","20.9","17.2","85.5","30.33","319","0","0","0.00","0.00"
"04:09:57","20.8","17.3","86","30.33","319","0","0","0.00","0.00"
"04:14:57","20.6","17.1","86","30.34","319","0","0","0.00","0.00"
"04:19:57","20.4","16.9","86","30.34","319","0","0","0.00","0.00"
"04:24:56","20.1","16.6","86","30.34","319","0","0","0.00","0.00"
"04:29:58","19.9","16.4","86","30.34","319","0","0","0.00","0.00"
"04:34:57","19.8","16.3","86","30.34","319","0","0","0.00","0.00"
"04:39:57","19.6","16.1","86","30.34","319","0","0","0.00","0.00"
"04:44:57","19.4","15.9","86","30.35","319","0","0","0.00","0.00"
"04:49:56","19.3","16.1","86.9","30.35","319","0","0","0.00","0.00"
"04:54:59","19.2","16","87","30.35","319","0","0","0.00","0.00"
"04:59:59","19","15.8","87","30.36","319","0","0","0.00","0.00"
"05:04:57","18.9","15.7","87","30.36","319","0","0","0.00","0.00"
"05:09:56","18.9","15.8","87.4","30.36","319","0","0","0.00","0.00"
"05:14:57","18.9","15.9","88","30.36","319","0","0","0.00","0.00"
"05:19:57","19.1","16.1","88","30.36","319","0","0","0.00","0.00"
"05:24:56","19.1","16.1","88","30.36","319","0","0","0.00","0.00"
"05:29:56","19","16","88","30.36","319","0","0","0.00","0.00"
"05:34:59","18.9","15.9","88","30.36","319","0","0","0.00","0.00"
"05:39:56","18.8","15.8","88","30.36","319","0","0","0.00","0.00"
"05:44:59","18.8","15.8","88","30.37","319","0","0","0.00","0.00"
"05:49:59","18.6","15.6","88","30.37","319","0","0","0.00","0.00"
"05:54:56","18.4","15.4","88","30.37","319","0","0","0.00","0.00"
"05:59:59","18.4","15.4","88","30.37","319","0","0","0.00","0.00"
"06:04:57","18.4","15.6","88.6","30.37","319","0","0","0.00","0.00"
"06:09:58","18.4","15.5","88.5","30.37","319","0","0","0.00","0.00"
"06:14:58","18.3","15.3","88","30.37","319","0","0","0.00","0.00"
"06:19:57","18.2","15.2","88","30.37","319","0","0","0.00","0.00"
"06:24:57","18","15","88","30.37","319","0","0","0.00","0.00"
"06:29:56","17.9","14.9","88","30.38","319","0","0","0.00","0.00"
"06:34:59","17.8","14.8","88","30.38","319","0","0","0.00","0.00"
"06:39:59","17.7","14.8","88","30.38","319","0","0","0.00","0.00"
"06:44:58","17.5","14.6","88","30.39","319","0","0","0.00","0.00"
"06:49:58","17.4","14.6","88.5","30.39","319","0","0","0.00","0.00"
"06:54:57","17.3","14.6","89","30.39","319","0","0","0.00","0.00"
"06:59:56","17.4","14.7","89.1","30.39","319","0","0","0.00","0.00"
"07:04:59","17.6","15.2","90","30.39","319","0","0","0.00","0.00"
"07:09:57","18","15.6","90","30.39","319","0","0","0.00","0.00"
"07:14:57","18.5","16.1","90","30.39","319","0","0","0.00","0.00"
"07:19:56","19.1","16.6","90","30.39","319","0","0","0.00","0.00"
"07:24:59","19.6","17.1","90","30.39","319","0","0","0.00","0.00"
"07:29:59","20.1","17.5","89.6","30.40","319","0","0","0.00","0.00"
"07:34:57","20.9","18.4","90","30.40","319","0","0","0.00","0.00"
"07:39:56","22.4","19.6","88.7","30.40","319","0","0","0.00","0.00"
"07:44:58","23.9","20.8","87.6","30.40","319","0","0","0.00","0.00"
"07:49:56","25","20.9","84.1","30.40","319","0","0","0.00","0.00"
"07:54:59","25.9","21.3","82.4","30.40","319","0","0","0.00","0.00"
"07:59:58","26.4","21.2","80.4","30.40","319","0","1","0.00","0.00"
"08:04:59","27.4","20.8","75.8","30.40","319","0.9","3","0.00","0.00"
"08:09:58","28.2","20.7","73.4","30.40","310","1.8","4","0.00","0.00"
"08:14:57","28.8","20.6","71","30.41","325","2.3","5","0.00","0.00"
"08:19:59","29.4","20.1","68","30.41","315","2.6","4.6","0.00","0.00"
"08:24:58","29.9","20.4","67.3","30.41","295","1.9","4","0.00","0.00"
"08:29:56","30.5","20.8","67.2","30.41","270","2.4","5","0.00","0.00"
"08:34:58","30.9","20.9","65.9","30.41","293","2.1","5","0.00","0.00"
"08:39:56","31.5","20.3","63","30.41","328","2.8","6","0.00","0.00"
"08:44:58","31.8","19.9","61","30.41","328","4","10.4","0.00","0.00"
"08:49:56","32","19.8","60.3","30.41","324","3.9","6.9","0.00","0.00"
"08:54:58","32.4","20","59.8","30.41","299","3.5","7","0.00","0.00"
"08:59:56","32.9","20","58.6","30.42","319","4","9.2","0.00","0.00"
"09:04:57","33.2","19.9","57.6","30.42","315","3.8","7","0.00","0.00"
"09:09:59","33.6","19.6","55.9","30.42","314","4","9.2","0.00","0.00"
"09:14:59","34","19","53.8","30.42","317","4.3","10.4","0.00","0.00"
"09:19:57","34.2","18.5","52.2","30.42","322","4.2","11.5","0.00","0.00"
"09:24:59","34.6","18.4","51.2","30.42","324","3.5","11","0.00","0.00"
"09:29:57","34.9","18","49.7","30.42","316","4.2","9","0.00","0.00"
"09:34:59","35.3","18.4","50","30.42","312","3.8","11","0.00","0.00"
"09:39:58","35.7","18","48.2","30.42","312","4.4","10.4","0.00","0.00"
"09:44:56","35.9","18.4","48.7","30.42","289","3.7","10","0.00","0.00"
"09:49:58","36.3","18","46.9","30.42","315","4","10.4","0.00","0.00"
"09:54:57","36.6","17.4","45.4","30.42","327","5.2","10","0.00","0.00"
"09:59:59","36.8","17.5","45.3","30.42","309","3","6.9","0.00","0.00"
"10:04:59","37.3","16.4","42.3","30.42","338","4.8","10.4","0.00","0.00"
"10:09:57","37.9","16","40.5","30.42","316","4.2","12","0.00","0.00"
"10:14:56","38.4","15.8","39.4","30.42","329","4.3","9.2","0.00","0.00"
"10:19:58","38.6","15.3","38.3","30.42","321","4.8","11","0.00","0.00"
"10:24:56","38.6","14.8","37.5","30.42","329","5.3","11.5","0.00","0.00"
"10:29:58","38.7","15.7","38.8","30.42","332","4.5","11.5","0.00","0.00"
"10:34:59","39.1","15.4","37.7","30.42","342","5.7","12","0.00","0.00"
"10:39:58","38.9","14.7","36.9","30.42","314","4.8","11.5","0.00","0.00"
"10:44:56","38.8","14.7","37","30.42","315","6.2","14","0.00","0.00"
"10:49:59","38.7","15","37.6","30.42","349","6.2","14","0.00","0.00"
"10:54:57","39.1","15.6","38.1","30.42","337","4.8","11.5","0.00","0.00"
"10:59:59","39.5","16.1","38.2","30.42","326","4.4","11.5","0.00","0.00"
"11:04:59","39.9","15.3","36.5","30.41","313","4.8","12","0.00","0.00"
"11:09:57","40.2","16.4","37.8","30.41","335","5","16","0.00","0.00"
"11:14:56","40.5","15.7","36.2","30.41","342","5.6","16.1","0.00","0.00"
"11:19:59","40.5","15.9","36.6","30.41","302","3.7","9","0.00","0.00"
"11:24:57","40.8","16.4","36.8","30.41","330","4","10.4","0.00","0.00"
"11:29:59","41.5","15.5","34.6","30.41","347","5.6","14","0.00","0.00"
"11:34:57","41.6","14.8","33.2","30.41","313","5.5","12","0.00","0.00"
"11:39:56","41.1","14.4","33.4","30.41","318","4.5","11","0.00","0.00"
"11:44:59","40.9","14.7","34","30.41","313","5.1","12","0.00","0.00"
"11:49:56","41.3","15.7","35","30.41","253","3.6","12","0.00","0.00"
"11:54:58","41.9","15.6","34.2","30.41","319","5.6","13","0.00","0.00"
"11:59:57","41.9","15","33.3","30.41","321","5.2","17.3","0.00","0.00"
"12:04:57","41.9","14.2","32.1","30.40","326","7.1","13.8","0.00","0.00"
"12:09:59","41.6","14.3","32.7","30.40","309","5.3","11.5","0.00","0.00"
"12:14:57","42","15.5","33.8","30.40","267","4.8","9.2","0.00","0.00"
"12:19:56","42.9","17.4","35.5","30.40","248","4.6","12","0.00","0.00"
"12:24:58","43.7","16.5","33.2","30.40","332","3.7","9","0.00","0.00"
"12:29:59","44","16.3","32.4","30.40","298","3.6","9.2","0.00","0.00"
"12:34:58","44.1","16.4","32.4","30.40","347","4.3","10.4","0.00","0.00"
"12:39:57","43.9","15.3","31.1","30.40","308","6.3","13","0.00","0.00"
"12:44:59","43.7","17.2","34.1","30.40","278","3.8","11","0.00","0.00"
"12:49:58","44.6","17.2","33.1","30.39","324","5","16.1","0.00","0.00"
"12:54:56","45","17.4","32.7","30.39","336","3.2","8.1","0.00","0.00"
"12:59:58","45","17.1","32.3","30.39","331","5.3","17.3","0.00","0.00"
"13:04:59","44.8","17","32.5","30.38","329","4.3","11.5","0.00","0.00"
"13:09:56","44.8","17.1","32.7","30.38","325","5.3","11.5","0.00","0.00"
"13:14:56","44.9","17.4","33","30.38","322","5","14","0.00","0.00"
"13:19:58","44.5","16.3","31.9","30.38","329","6.8","12.7","0.00","0.00"
"13:24:57","44.6","17.7","33.7","30.38","314","4.4","11","0.00","0.00"
"13:29:59","45.1","18","33.6","30.38","321","5.4","12","0.00","0.00"
"13:34:57","45.3","17.4","32.3","30.37","336","6.5","12","0.00","0.00"
"13:39:56","44.9","16.2","31.3","30.37","338","4.2","11.5","0.00","0.00"
"13:44:59","44.9","17.9","33.5","30.37","326","4","14","0.00","0.00"
"13:49:57","45.1","16.8","31.7","30.37","276","4.8","13.8","0.00","0.00"
"13:54:56","45.1","17.7","33.1","30.37","267","2.9","13","0.00","0.00"
"13:59:58","46","18.7","33.4","30.37","343","4.9","13","0.00","0.00"
"14:04:59","46.3","18.2","32.3","30.37","325","3.3","9","0.00","0.00"
"14:09:56","46.4","17.7","31.4","30.37","327","5.5","11.5","0.00","0.00"
"14:14:56","46.1","17.7","31.8","30.37","315","1.8","5","0.00","0.00"
"14:19:59","46.5","18.3","32.1","30.36","313","4.3","11.5","0.00","0.00"
"14:24:58","46.5","18.6","32.5","30.36","353","4.9","12","0.00","0.00"
"14:29:56","46.1","17.1","30.9","30.36","329","6.3","11.5","0.00","0.00"
"14:34:59","45.7","17.1","31.5","30.36","341","6.1","14","0.00","0.00"
"14:39:58","46","18.1","32.5","30.36","353","5.4","13.8","0.00","0.00"
"14:44:57","46.4","17.6","31.3","30.36","340","4.4","12","0.00","0.00"
"14:49:56","46.4","17","30.5","30.36","311","4.4","14","0.00","0.00"
"14:54:59","46.3","17.6","31.5","30.36","1","5.3","14","0.00","0.00"
"14:59:58","46.3","17.8","31.7","30.36","336","4.7","9.2","0.00","0.00"
"15:04:59","46.7","18.4","32.1","30.36","304","3.9","10","0.00","0.00"
"15:09:57","47","17.1","30","30.36","299","4.2","7","0.00","0.00"
"15:14:58","47.2","17.7","30.5","30.36","307","4.7","12","0.00","0.00"
"15:19:58","47","18","31.3","30.36","299","3","14","0.00","0.00"
"15:24:57","47.1","17.5","30.3","30.36","342","5.6","13.8","0.00","0.00"
"15:29:57","47.2","17.2","29.9","30.36","309","3.7","7","0.00","0.00"
"15:34:57","47","17.2","30.2","30.36","291","2.9","7","0.00","0.00"
"15:39:56","47.1","17.6","30.5","30.36","346","2.5","7","0.00","0.00"
"15:44:58","47.4","18","30.8","30.36","318","2.9","9.2","0.00","0.00"
"15:49:58","47.8","17.9","30","30.36","351","3.4","11","0.00","0.00"
"15:54:57","47.9","17.2","29.1","30.36","319","4.6","11.5","0.00","0.00"
"15:59:57","47.7","17.1","29.3","30.36","330","4.1","9.2","0.00","0.00"
"16:04:58","47.7","17.1","29.2","30.35","317","2.5","6","0.00","0.00"
"16:09:56","47.8","17.3","29.4","30.35","285","2.9","6","0.00","0.00"
"16:14:56","47.8","17.7","29.8","30.35","336","4.3","11.5","0.00","0.00"
"16:19:59","47.7","16.9","29","30.35","5","3.5","10","0.00","0.00"
"16:24:59","47.9","17.5","29.6","30.35","284","3.9","8.1","0.00","0.00"
"16:29:58","47.8","16.7","28.7","30.35","332","5.8","14","0.00","0.00"
"16:34:57","47.6","17","29.2","30.35","322","4.2","10.4","0.00","0.00"
"16:39:56","47.4","16.2","28.3","30.35","320","3.8","6","0.00","0.00"
"16:44:59","47.4","17.1","29.5","30.35","322","3.2","7","0.00","0.00"
"16:49:58","47.3","17","29.6","30.35","317","3.8","7","0.00","0.00"
"16:54:57","46.8","16.8","29.7","30.35","330","3.4","6.9","0.00","0.00"
"16:59:56","46.7","16.8","29.9","30.35","313","2","4","0.00","0.00"
"17:04:58","47","17.1","30","30.35","344","2.1","7","0.00","0.00"
"17:09:56","47.2","17","29.6","30.35","332","2.7","6","0.00","0.00"
"17:14:59","47.1","16.4","29","30.35","334","4.3","9.2","0.00","0.00"
"17:19:59","46.8","16.5","29.3","30.35","339","4.3","10.4","0.00","0.00"
"17:24:58","46.4","16.7","30.1","30.35","341","4","10.4","0.00","0.00"
"17:29:57","46.2","16.9","30.7","30.36","341","2.7","9.2","0.00","0.00"
"17:34:57","45.8","16.6","30.8","30.36","6","1.7","5","0.00","0.00"
"17:39:58","45.4","17","31.8","30.36","338","1.3","4","0.00","0.00"
"17:44:58","44.9","17","32.2","30.36","3","1","2.3","0.00","0.00"
"17:49:58","44.4","16.3","32","30.36","60","0.6","3.5","0.00","0.00"
"17:54:59","44","16.4","32.6","30.36","61","0.4","2","0.00","0.00"
"17:59:59","43.6","16.3","33","30.36","61","0.1","1.2","0.00","0.00"
"18:04:58","43.2","16","33","30.36","61","0","1.2","0.00","0.00"
"18:09:57","42.8","15.9","33.3","30.36","61","0","0","0.00","0.00"
"18:14:56","42.6","15.8","33.5","30.37","61","0","0","0.00","0.00"
"18:19:57","42.3","15.7","33.8","30.37","61","0","0","0.00","0.00"
"18:24:59","41.9","16.5","35.5","30.37","61","0","0","0.00","0.00"
"18:29:59","41.1","17.9","38.9","30.37","61","0","0","0.00","0.00"
"18:34:59","40.4","18.3","40.7","30.37","61","0.2","1.2","0.00","0.00"
"18:39:56","39.7","17.2","39.9","30.37","61","0.3","2.3","0.00","0.00"
"18:44:56","39.1","16.9","40.1","30.38","61","0","1.2","0.00","0.00"
"18:49:57","38.6","17.3","41.6","30.38","61","0.2","1.2","0.00","0.00"
"18:54:57","38.1","17.2","42.5","30.38","61","0","1.2","0.00","0.00"
"18:59:58","37.5","18.7","46.3","30.39","62","0","0","0.00","0.00"
"19:04:57","36.8","20","50.3","30.39","62","0","0","0.00","0.00"
"19:09:56","36.1","19.8","51.2","30.39","62","0","0","0.00","0.00"
"19:14:59","35.6","19.3","51.3","30.39","61","0","1","0.00","0.00"
"19:19:56","35","19.6","53","30.39","61","0","1.2","0.00","0.00"
"19:24:57","34.6","19.8","54.4","30.39","62","0","1","0.00","0.00"
"19:29:59","34.1","18.6","52.7","30.40","61","0.9","2.3","0.00","0.00"
"19:34:57","33.9","18.2","52.2","30.40","61","0","1.2","0.00","0.00"
"19:39:59","33.5","18.3","53.2","30.40","61","0","0","0.00","0.00"
"19:44:59","33.2","18.9","55.5","30.40","61","0.3","2","0.00","0.00"
"19:49:56","32.8","18.9","56.2","30.40","61","0.9","2.3","0.00","0.00"
"19:54:57","32.6","18.9","56.8","30.40","61","0","1.2","0.00","0.00"
"19:59:58","32.2","19.3","58.4","30.41","61","0.1","1","0.00","0.00"
"20:04:56","31.9","18.6","57.5","30.41","61","1","2.3","0.00","0.00"
"20:09:59","31.6","18.3","57.5","30.41","61","1.2","2.3","0.00","0.00"
"20:14:58","31.3","19.2","60.5","30.41","61","1","3.5","0.00","0.00"
"20:19:56","31","18.7","60.1","30.41","61","0.3","1.2","0.00","0.00"
"20:24:56","30.7","19.9","63.7","30.41","61","0","1.2","0.00","0.00"
"20:29:57","30.3","19.7","64.4","30.42","61","0","0","0.00","0.00"
"20:34:57","30","19.7","65.1","30.42","61","0","0","0.00","0.00"
"20:39:59","29.7","19.7","65.9","30.42","61","0","0","0.00","0.00"
"20:44:59","29.5","19.8","66.8","30.42","61","0","0","0.00","0.00"
"20:49:56","29.2","19.9","67.7","30.42","61","0","0","0.00","0.00"
"20:54:58","29","20.1","69","30.42","61","0","0","0.00","0.00"
"20:59:56","28.8","20.2","69.8","30.43","62","0","0","0.00","0.00"
"21:04:58","28.7","20.3","70.7","30.43","61","0","0","0.00","0.00"
"21:09:57","28.5","20.1","70.2","30.43","61","0","0","0.00","0.00"
"21:14:59","28.4","19.7","69.5","30.43","61","0","0","0.00","0.00"
"21:19:56","28.3","19.8","70","30.43","61","0","0","0.00","0.00"
"21:24:57","28.2","19.7","70.2","30.43","61","0.4","1.2","0.00","0.00"
"21:29:58","28.1","19.3","69.2","30.43","61","0.2","1.2","0.00","0.00"
"21:34:59","28.1","19","68.2","30.43","61","0","1.2","0.00","0.00"
"21:39:56","28","19.1","69","30.43","61","0","0","0.00","0.00"
"21:44:57","27.9","19.5","70.5","30.43","61","0.1","1.2","0.00","0.00"
"21:49:59","27.7","19.7","71.7","30.43","61","0.2","1.2","0.00","0.00"
"21:54:56","27.5","19.5","71.7","30.43","61","0","1.2","0.00","0.00"
"21:59:57","27.3","19.5","72","30.44","61","0.1","1.2","0.00","0.00"
"22:04:56","27.2","19.1","71.3","30.44","61","0.1","1.2","0.00","0.00"
"22:09:58","27.1","19.6","72.8","30.44","61","0.4","2","0.00","0.00"
"22:14:56","27","19.1","71.6","30.44","61","1.2","2.3","0.00","0.00"
"22:19:56","27","18.5","70.1","30.44","61","0.2","2.3","0.00","0.00"
"22:24:57","26.9","18.1","69.1","30.44","61","0.1","1.2","0.00","0.00"
"22:29:58","26.8","18.7","71","30.45","61","0","0","0.00","0.00"
"22:34:58","26.6","18.8","71.9","30.45","61","0","0","0.00","0.00"
"22:39:59","26.4","19","73.5","30.45","62","0","0","0.00","0.00"
"22:44:59","26.1","18.9","74","30.45","61","0","1","0.00","0.00"
"22:49:59","26","18.9","74.3","30.44","61","0.8","2.3","0.00","0.00"
"22:54:59","26","18.9","74.3","30.44","61","0.9","2.3","0.00","0.00"
"22:59:56","26","18.7","73.7","30.45","61","1.5","2.3","0.00","0.00"
"23:04:59","26","18.5","72.9","30.45","61","0.6","2.3","0.00","0.00"
"23:09:58","25.9","17.9","71.4","30.45","61","0","0","0.00","0.00"
"23:14:59","25.7","18.6","74","30.45","61","0","0","0.00","0.00"
"23:19:59","25.5","18.4","74","30.45","61","0","0","0.00","0.00"
"23:24:59","25.3","18.4","74.5","30.45","61","0","0","0.00","0.00"
"23:29:57","25.2","18.4","75.1","30.45","61","0.5","2.3","0.00","0.00"
"23:34:57","25.2","18.5","75.6","30.45","61","1.1","2.3","0.00","0.00"
"23:39:57","25.2","18.4","75.1","30.45","61","0","1.2","0.00","0.00"
"23:44:57","25","18.2","74.8","30.46","61","0","0","0.00","0.00"
"23:49:56","24.8","17.8","74.1","30.46","61","0","0","0.00","0.00"
"23:54:56","24.6","18","75.4","30.46","61","0","0","0.00","0.00"
"23:59:56","24.5","18.1","76.6","30.46","61","0","0","0.00","0.00"
